Location: Newark
(42.8481°N, 0.4872°E)
Time: 08:06:35
(UTC+00:00)

Vanguard 3 - Pass Details

Date: 30 October 2020
Orbit: 508 x 3262 km, 33.3° (Epoch: 28 November)

Event Time Altitude Azimuth Distance (km) Brightness Sun altitude
Rises 11:07:59 0° 280° (W) 7,233 11.8 32.6°
Reaches altitude 10° 11:13:50 10° 272° (W) 6,127 11.6 32.8°
Maximum altitude 11:28:40 31° 221° (SW) 3,949 11.6 33.1°
Drops below altitude 10° 11:39:35 10° 165° (SSE) 4,453 12.3 33.1°
Sets 11:43:04 0° 155° (SSE) 5,073 12.1 33.1°
